Wind_Speed
9 9 8 9 9 9 9 10 11 10 11 11 11 11 10 10 10 11 11 10 10 11 11 10 9 9 9 9 10 10 11 12 12 13 13 13 13 13 12 12 12 13 13
10 10 9 9 10 10 10 10 11 11 10 11 12 12 11 11 11 12 12 12 11 11 11 11 11 11 10 10 11 11 12 12 12 13 14 14 14 14 13 13 13 14 14
10 11 10 10 10 10 10 11 11 11 11 11 12 12 12 12 13 13 13 13 12 12 12 12 12 12 11 11 11 12 12 12 12 13 14 14 14 15 14 14 15 15 15
11 10 11 11 11 10 10 11 11 12 12 12 12 13 13 13 14 14 14 13 13 13 13 13 13 13 13 13 11 11 12 12 12 13 13 12 13 14 15 16 15 16 16
11 11 11 11 11 11 11 11 11 12 12 12 12 13 13 13 14 15 15 15 15 14 14 14 14 13 13 14 13 12 12 12 13 13 12 12 11 13 14 15 16 15 16
11 11 11 11 11 11 12 13 13 13 12 12 12 13 13 13 14 15 15 15 15 15 15 15 15 15 14 14 14 14 12 13 14 13 13 12 12 13 14 14 15 15 15
10 11 12 11 11 12 12 13 13 12 11 11 12 13 13 14 14 15 15 16 16 17 16 16 16 16 15 15 15 15 15 14 14 14 14 14 13 13 14 15 15 15 16
10 10 11 11 12 12 12 12 12 12 12 12 12 12 13 14 14 15 15 16 17 17 17 16 16 16 16 16 16 16 16 15 14 14 14 14 14 15 15 15 15 16 16
10 11 11 11 11 11 12 12 12 12 12 13 13 13 13 14 14 15 15 16 17 17 16 16 17 17 17 17 17 17 17 17 16 15 15 15 15 15 15 16 17 17 17
10 12 11 10 10 11 11 12 12 13 12 12 13 14 14 14 14 14 15 15 16 17 17 16 17 16 17 17 18 18 19 19 18 17 16 16 16 16 17 16 17 17 17
11 11 10 9 9 10 10 11 11 11 11 12 12 12 13 14 15 15 15 15 16 16 17 16 16 17 17 17 18 18 19 19 19 18 17 17 17 17 17 17 17 17 17
11 11 10 9 9 9 9 9 9 10 11 11 12 13 13 13 13 14 14 15 16 17 18 17 18 18 18 18 19 19 19 19 20 18 17 18 17 17 18 18 18 18 18
11 11 10 9 9 9 9 9 10 10 10 11 12 13 13 13 13 13 14 14 15 16 17 17 18 19 19 19 19 19 19 19 20 19 18 18 18 18 18 19 19 19 19
12 12 12 11 10 10 10 10 10 10 11 11 11 11 11 12 12 13 14 14 15 16 17 17 17 18 18 18 19 19 19 19 20 19 20 20 20 19 18 18 19 19 19
13 13 12 12 12 11 10 10 10 10 10 10 10 10 10 11 12 13 13 14 15 15 15 16 17 17 17 18 18 19 20 20 21 21 21 21 22 20 18 18 19 19 20
14 14 13 13 13 13 12 11 10 10 10 10 9 10 10 10 11 12 13 13 14 15 15 16 16 17 17 17 17 18 20 21 20 19 20 20 20 19 19 18 19 20 20
14 14 13 13 13 13 12 11 11 10 10 10 9 10 10 10 11 12 13 13 14 14 14 15 16 16 17 17 17 17 18 19 18 17 17 18 18 18 18 18 19 19 20
13 13 12 12 12 11 11 11 11 11 11 11 11 11 10 10 11 11 12 13 13 13 13 14 15 16 16 16 16 17 17 17 17 17 18 18 19 19 19 19 18 19 19
12 12 12 12 11 11 11 11 11 12 12 12 12 12 12 11 11 11 12 12 13 13 13 14 15 15 15 15 16 15 16 18 17 18 18 19 18 18 18 19 19 19 19
13 14 14 13 13 12 12 12 12 13 13 13 13 13 12 12 12 12 12 13 14 14 14 14 14 14 15 16 16 16 17 17 17 18 18 18 18 18 19 19 20 20 20
14 14 14 14 14 14 14 14 14 14 14 14 14 13 13 14 14 13 13 13 13 13 14 14 14 14 15 15 16 17 17 17 17 18 18 18 19 19 19 19 20 20 21
15 15 15 15 15 15 15 16 16 15 15 15 14 14 14 15 15 15 14 14 13 13 14 14 15 15 16 16 17 17 18 18 17 19 19 19 20 20 20 20 21 21 21
16 16 16 16 16 17 17 17 17 16 16 16 16 16 15 15 16 16 15 15 15 14 14 14 14 15 15 16 16 17 17 18 18 19 19 20 20 20 21 21 21 22 21
17 17 17 17 17 18 17 18 18 18 17 17 17 17 17 17 17 16 16 16 16 16 16 16 16 16 17 16 16 17 18 18 19 19 19 20 20 20 20 20 21 21 22
18 18 19 19 19 19 19 19 19 18 18 18 18 18 18 18 18 17 17 16 16 17 18 18 18 17 17 17 17 17 18 18 18 18 19 20 21 21 21 21 21 21 22
19 19 20 20 20 19 19 19 19 19 19 19 19 19 19 19 19 19 18 18 18 18 18 19 19 19 18 18 18 18 19 19 19 19 19 20 21 21 22 22 22 23 23
Wind_Direction
270 270 269 268 267 265 262 260 254 253 253 253 251 250 249 244 241 245 249 251 251 253 254 254 255 258 259 258 257 254 249 246 245 245 248 248 250 249 251 255 258 258 257
270 268 266 266 265 264 263 262 254 251 255 255 252 250 248 247 249 250 250 251 252 253 254 257 259 258 260 261 259 257 250 248 250 251 250 250 251 247 248 252 258 260 261
272 267 264 265 265 262 260 258 255 253 253 252 250 248 247 248 252 251 251 251 252 255 257 257 259 260 263 267 267 263 258 255 255 255 255 251 250 250 249 252 256 259 259
272 265 262 264 265 262 260 260 257 253 252 252 251 248 249 249 251 253 254 254 254 256 258 257 259 261 263 266 271 271 266 264 261 261 255 259 259 254 253 254 255 258 259
272 264 263 264 266 267 266 265 263 257 253 253 252 251 250 250 256 256 256 256 257 260 260 259 260 261 263 267 270 272 269 268 267 262 256 263 265 260 259 255 255 257 257
272 268 267 265 265 265 267 265 263 258 256 256 254 251 250 256 259 258 259 258 258 260 260 260 259 259 262 266 268 272 267 269 267 265 261 261 264 264 261 261 260 260 260
274 269 265 262 263 263 265 266 261 258 257 257 254 252 254 258 260 259 259 260 259 258 259 260 260 258 261 263 266 266 265 270 269 265 266 265 265 263 262 261 260 261 263
275 269 263 262 264 263 262 265 263 261 258 255 254 253 253 256 261 260 261 260 258 258 259 259 259 259 260 262 263 265 266 272 272 267 268 269 265 264 263 262 263 264 265
274 272 269 267 264 262 261 264 262 262 261 257 255 255 256 259 261 260 261 261 258 258 260 259 259 259 260 262 265 266 269 274 272 270 269 271 268 266 265 265 265 263 265
273 272 270 272 268 267 265 267 264 262 259 260 258 258 259 260 261 261 261 260 256 257 260 262 260 260 260 262 265 266 268 271 272 271 270 268 268 266 265 265 265 265 267
272 273 272 268 265 268 270 270 268 264 264 265 263 261 259 260 261 262 261 260 258 258 260 260 260 260 260 261 264 266 268 270 270 272 270 269 269 267 267 266 267 270 272
269 269 271 265 264 269 270 269 267 266 268 268 265 262 262 262 263 262 263 263 262 261 260 260 260 262 264 265 267 269 270 270 270 270 271 269 270 267 267 268 268 270 275
274 272 269 268 266 268 269 269 266 266 271 272 268 264 263 263 262 261 263 264 264 263 262 260 261 263 265 266 267 269 271 270 270 270 271 270 267 270 267 266 268 271 274
274 273 270 268 267 267 268 269 267 268 274 273 270 266 264 263 262 262 263 265 264 264 263 261 263 264 266 267 267 268 270 271 270 272 272 274 272 272 269 264 267 271 275
273 274 269 266 265 265 266 269 270 272 274 275 272 269 267 267 264 263 264 266 268 265 263 262 263 265 268 267 267 269 270 273 274 274 274 275 276 276 272 269 270 273 276
270 270 268 266 266 264 265 266 270 276 277 276 276 273 272 274 271 267 266 267 267 266 264 265 265 265 269 271 270 271 273 273 274 274 275 278 277 275 273 273 273 274 275
268 265 264 263 261 262 265 265 269 272 273 276 278 279 279 277 276 272 267 266 267 266 265 266 267 267 269 269 271 272 274 274 273 273 275 277 276 279 278 274 274 276 275
264 261 258 259 262 261 261 267 270 271 273 273 275 278 279 278 280 276 272 270 268 267 266 268 268 270 270 273 274 273 274 277 277 277 277 278 277 278 278 280 279 278 276
262 259 255 256 255 257 263 269 272 273 276 275 277 276 274 275 279 277 276 273 271 271 270 271 269 271 272 274 276 277 279 281 282 281 282 282 280 278 278 281 282 282 282
263 260 258 254 256 259 264 269 274 276 277 277 276 275 275 276 279 279 279 275 272 271 271 271 272 273 274 274 276 277 279 281 283 283 284 284 282 281 280 281 281 281 282
264 263 257 256 258 261 265 270 273 273 275 276 275 274 276 279 282 281 284 280 278 276 273 273 275 277 278 278 282 283 281 282 284 282 282 282 280 280 280 279 278 280 284
262 258 259 260 260 262 266 269 271 272 272 274 274 273 277 279 281 284 285 282 280 280 276 275 275 275 276 278 283 285 284 284 285 284 284 283 282 281 283 281 280 281 284
260 260 262 265 265 265 268 270 272 272 270 273 274 274 275 279 280 282 283 279 280 280 279 279 278 279 280 284 286 288 287 286 287 285 285 285 284 284 285 284 282 282 284
263 264 266 266 266 268 269 270 271 271 271 274 274 275 275 277 279 281 281 280 279 279 278 277 279 281 282 283 284 287 289 289 289 287 286 285 285 286 288 287 286 285 285
265 265 266 267 268 269 269 270 269 269 272 274 275 276 277 279 278 278 278 278 279 278 277 277 279 281 283 284 286 288 288 288 289 288 288 288 288 286 286 288 288 287 286
264 264 265 268 267 267 268 268 268 270 271 272 275 276 277 278 279 279 277 277 276 275 275 276 279 280 282 284 287 290 290 289 288 289 289 289 289 288 288 288 288 291 291
Height
5869 5869 5869 5869 5869 5869 5869 5869 5869 5869 5870 5870 5871 5871 5872 5872 5873 5873 5873 5873 5874 5874 5874 5874 5874 5874 5873 5873 5873 5873 5873 5873 5874 5874 5874 5875 5876 5876 5877 5878 5878 5879 5879
5867 5867 5867 5866 5866 5866 5866 5866 5866 5867 5867 5868 5868 5869 5869 5870 5870 5870 5871 5871 5871 5872 5872 5872 5872 5872 5871 5871 5871 5870 5870 5870 5870 5871 5871 5871 5872 5873 5874 5874 5875 5875 5876
5864 5864 5864 5863 5863 5864 5864 5864 5864 5864 5865 5865 5866 5866 5867 5867 5868 5868 5868 5868 5869 5869 5869 5869 5869 5869 5869 5868 5868 5868 5868 5868 5867 5867 5867 5867 5868 5869 5870 5871 5871 5872 5872
5861 5861 5861 5861 5861 5861 5861 5861 5862 5862 5862 5862 5863 5863 5864 5864 5865 5865 5865 5865 5866 5866 5866 5866 5866 5866 5866 5866 5865 5865 5865 5865 5865 5864 5864 5864 5864 5865 5866 5867 5867 5868 5868
5859 5859 5859 5859 5859 5859 5859 5859 5859 5859 5859 5859 5859 5860 5861 5861 5862 5862 5862 5862 5863 5863 5863 5863 5863 5863 5863 5863 5863 5862 5862 5862 5863 5862 5861 5861 5861 5862 5862 5863 5863 5864 5864
5856 5856 5856 5856 5856 5856 5856 5856 5856 5856 5856 5856 5856 5857 5858 5858 5858 5859 5859 5859 5859 5860 5860 5860 5860 5860 5860 5860 5860 5860 5859 5859 5859 5859 5858 5858 5858 5859 5859 5859 5859 5860 5860
5854 5854 5854 5854 5853 5853 5853 5853 5853 5853 5853 5853 5854 5854 5854 5854 5855 5855 5855 5855 5856 5856 5856 5856 5856 5856 5856 5856 5856 5856 5856 5856 5856 5856 5856 5856 5855 5855 5855 5855 5856 5856 5856
5852 5852 5851 5851 5851 5851 5850 5850 5850 5850 5850 5850 5850 5851 5851 5852 5851 5851 5851 5852 5852 5852 5852 5852 5853 5853 5853 5853 5853 5853 5853 5853 5853 5853 5852 5852 5852 5852 5852 5852 5852 5852 5852
5849 5849 5849 5848 5848 5848 5847 5847 5847 5847 5847 5847 5847 5848 5848 5848 5848 5848 5848 5848 5848 5848 5849 5849 5849 5849 5849 5850 5850 5850 5850 5849 5849 5849 5849 5848 5848 5848 5848 5848 5848 5848 5848
5847 5846 5846 5845 5845 5845 5845 5844 5844 5844 5844 5844 5844 5844 5844 5844 5844 5844 5844 5844 5844 5845 5845 5845 5845 5845 5846 5846 5846 5846 5846 5846 5845 5845 5844 5844 5844 5843 5843 5843 5843 5843 5843
5844 5844 5843 5843 5842 5842 5842 5842 5841 5841 5841 5841 5840 5840 5840 5840 5840 5840 5840 5841 5841 5841 5841 5841 5841 5841 5842 5842 5842 5842 5842 5841 5841 5840 5840 5840 5839 5839 5839 5839 5839 5839 5839
5841 5841 5841 5840 5840 5840 5839 5839 5838 5838 5838 5837 5837 5837 5836 5836 5836 5836 5836 5836 5837 5837 5837 5837 5837 5837 5837 5838 5838 5838 5837 5837 5837 5836 5835 5835 5835 5835 5835 5835 5835 5834 5834
5839 5838 5838 5838 5837 5837 5837 5836 5836 5835 5835 5834 5833 5833 5833 5833 5833 5833 5833 5832 5833 5833 5833 5833 5833 5833 5833 5833 5833 5833 5833 5833 5832 5832 5831 5831 5831 5830 5830 5830 5830 5829 5829
5836 5836 5835 5835 5835 5834 5834 5833 5833 5832 5832 5831 5830 5829 5829 5829 5829 5829 5829 5829 5829 5829 5829 5829 5828 5829 5829 5829 5829 5829 5829 5828 5828 5827 5827 5826 5826 5826 5825 5825 5824 5824 5824
5833 5833 5833 5832 5832 5832 5831 5831 5830 5830 5829 5828 5827 5827 5826 5826 5826 5826 5826 5825 5825 5825 5824 5824 5824 5824 5824 5824 5824 5824 5824 5824 5823 5822 5822 5821 5821 5821 5820 5819 5819 5819 5818
5830 5829 5829 5829 5829 5829 5829 5828 5828 5827 5826 5825 5824 5824 5824 5823 5823 5823 5822 5822 5821 5821 5820 5820 5820 5820 5820 5820 5820 5820 5819 5819 5818 5818 5817 5817 5816 5815 5815 5814 5814 5814 5813
5826 5826 5826 5826 5826 5825 5825 5825 5825 5824 5824 5823 5822 5822 5821 5820 5820 5819 5819 5819 5818 5817 5817 5817 5816 5816 5816 5816 5816 5815 5815 5815 5814 5813 5813 5812 5811 5810 5810 5809 5809 5808 5807
5822 5822 5823 5823 5822 5822 5822 5822 5822 5822 5821 5821 5820 5819 5818 5818 5817 5816 5816 5815 5815 5814 5813 5813 5813 5813 5812 5811 5811 5811 5811 5810 5810 5809 5808 5807 5807 5806 5805 5804 5803 5803 5802
5819 5819 5820 5820 5820 5820 5820 5820 5819 5819 5819 5818 5817 5817 5816 5815 5815 5814 5813 5812 5812 5811 5810 5810 5809 5809 5808 5808 5807 5807 5807 5806 5805 5804 5804 5803 5802 5801 5800 5799 5798 5798 5797
5816 5816 5817 5817 5817 5817 5817 5817 5816 5816 5816 5815 5814 5814 5813 5812 5812 5811 5810 5809 5809 5808 5807 5806 5806 5805 5804 5804 5803 5803 5803 5802 5801 5800 5799 5798 5797 5796 5795 5794 5793 5792 5791
5812 5813 5813 5813 5814 5814 5814 5814 5813 5813 5812 5812 5811 5811 5810 5809 5809 5808 5807 5806 5805 5805 5804 5803 5802 5802 5801 5800 5799 5799 5798 5798 5796 5796 5795 5793 5792 5791 5790 5788 5787 5786 5785
5809 5809 5809 5809 5810 5810 5810 5810 5810 5809 5809 5808 5808 5807 5807 5806 5805 5804 5803 5803 5802 5801 5801 5800 5799 5798 5798 5797 5796 5795 5794 5794 5792 5792 5790 5789 5787 5786 5785 5784 5782 5781 5780
5805 5805 5805 5805 5805 5805 5806 5805 5805 5805 5805 5804 5804 5803 5803 5802 5801 5801 5800 5799 5798 5798 5797 5796 5796 5795 5794 5793 5792 5791 5790 5789 5787 5786 5785 5783 5782 5781 5779 5778 5777 5776 5774
5801 5801 5801 5801 5801 5801 5801 5801 5801 5800 5800 5800 5800 5799 5799 5798 5797 5796 5795 5795 5794 5793 5793 5792 5792 5791 5790 5789 5788 5787 5785 5783 5782 5780 5779 5778 5777 5775 5774 5773 5771 5770 5769
5796 5796 5796 5796 5796 5796 5796 5796 5796 5795 5795 5795 5795 5794 5794 5793 5792 5792 5791 5790 5789 5789 5788 5788 5787 5786 5785 5784 5783 5782 5780 5779 5777 5775 5774 5772 5771 5770 5769 5767 5766 5764 5763
5791 5791 5791 5791 5791 5791 5791 5790 5790 5790 5790 5790 5790 5789 5788 5788 5787 5786 5786 5785 5784 5784 5783 5783 5782 5781 5780 5779 5778 5777 5775 5774 5772 5771 5768 5767 5765 5764 5763 5761 5760 5758 5756